Regional Weather Roundup
Issued by NWS

Home | Current Version | Previous Version | Graphics & Text | Print | Product List | Glossary On
Versions: 1 2 3 4 5 6 7 8 9 10 11 12 13 14 15 16 17 18 19 20 21 22 23 24 25 26 27 28 29 30 31 32 33 34 35 36 37 38 39 40 41 42 43 44 45 46 47 48 49 50
000
ASUS43 KMKX 301411
RWRWI

WISCONSIN REGIONAL WEATHER ROUNDUP
NATIONAL WEATHER SERVICE MILWAUKEE/SULLIVAN WI
900 AM CDT SUN AUG 30 2015

NOTE: "FAIR" INDICATES FEW OR NO CLOUDS BELOW 12,000 FEET WITH NO
SIGNIFICANT WEATHER AND/OR OBSTRUCTIONS TO VISIBILITY.

WIZ001-002-006>008-014>016-023>028-301500-
NORTHWEST WISCONSIN

CITY           SKY/WX    TMP DP  RH WIND       PRES   REMARKS
SUPERIOR ARPT  CLOUDY    67  63  86 SW10      29.94F
ASHLAND        PTSUNNY   68  64  87 SW12G22   29.96F
HAYWARD        CLOUDY    64  61  90 SW12      30.01F
SIREN          CLOUDY    66  62  86 S7        30.00S
CUMBERLAND     CLOUDY    61  59  94 S8        30.02S FOG
RICE LAKE      CLOUDY    61  60  96 S7        30.04S FOG
CHETEK         CLOUDY   N/A N/A N/A S7        30.04R
LADYSMITH      CLOUDY    62  60  95 S8        30.06R FOG
EAU CLAIRE     SUNNY     64  60  87 S7        30.03F
MENOMONIE      CLOUDY    62  62  99 S5        30.04S FOG
NEW RICHMOND   CLOUDY    64  63  96 SW10      30.02S
OSCEOLA        CLOUDY    65  65 100 S12       30.03S
$$

WIZ003>005-009-010-017-018-301500-
NORTH CENTRAL WISCONSIN

CITY           SKY/WX    TMP DP  RH WIND       PRES   REMARKS
MANITOWISH WTR CLOUDY    61  61 100 SW8       30.04R FOG
ARBOR VITAE    CLOUDY    62  60  94 SW6       30.04F
WOODRUFF       CLOUDY    62  60  94 SW6       30.04F
RHINELANDER    CLOUDY    59  58  96 SW5       30.07S FOG
EAGLE RIVER    CLOUDY    61  60  97 SW9       30.05S
LAND O LAKES   CLOUDY    63  60  87 SW7       30.04F
PHILLIPS       CLOUDY    60  59  99 SW5       30.04S
TOMAHAWK       CLOUDY    57  56  97 CALM      30.06F FOG
MEDFORD        CLOUDY    60  60 100 SW6       30.06S
MERRILL        FOG       56  56 100 CALM      30.07S VSB 1/2
$$

WIZ029-030-035-036-043>047-301500-
CENTRAL WISCONSIN

CITY           SKY/WX    TMP DP  RH WIND       PRES   REMARKS
WAUSAU         CLOUDY    56  55  97 E3        30.05F FOG
MOSINEE        FOG       55  55 100 VRB3      30.08S VSB 1/4
MARSHFIELD     PTSUNNY   61  58  90 SW7       30.07S
STEVENS POINT  CLOUDY    58  58 100 CALM      30.08F FOG
WAUPACA        FOG       59  58  96 CALM      30.08S VSB 1/2
WAUTOMA        FOG       60  60 100 CALM      30.09R VSB<1/4
WISC RAPIDS    SUNNY     61  59  93 S3        30.08F
CAMP DOUGLAS   CLOUDY    61  61 100 SE3       30.07S
$$

WIZ011>013-019>022-031-037>040-048>050-301500-
NORTHEAST WISCONSIN

CITY           SKY/WX    TMP DP  RH WIND       PRES   REMARKS
ANTIGO         PTSUNNY   58  58 100 W5        30.07F FOG
SHAWANO        CLOUDY    59  58  96 CALM      30.07S FOG
OCONTO         SUNNY     59  59 100 CALM      30.06S
STURGEON BAY   MOSUNNY   63  59  88 SW3       30.09S
GREEN BAY      FOG       61  61 100 S5        30.08R VSB 1/2
MANITOWOC      FOG       61  61 100 MISG      30.09R VSB 1
APPLETON       MOSUNNY   61  61 100 CALM      30.07S FOG
CLINTONVILLE   SUNNY     57  57 100 CALM      30.07F
OSHKOSH        FOG       62  61  96 S3        30.08S VSB<1/4
$$

WIZ032>034-041-042-053>061-301500-
SOUTHWEST WISCONSIN

CITY           SKY/WX    TMP DP  RH WIND       PRES   REMARKS
LA CROSSE      FOG       61  61 100 SE5       30.06S VSB 1/4
SPARTA         SUNNY     58  56  94 CALM      30.08R
VIROQUA          N/A     63  63 100 CALM      30.08S
BOSCOBEL       FOG       61  60  97 CALM      30.09R VSB 1/4
PRAIRIE DU CHI CLOUDY    60  59  96 CALM      30.08R FOG
PLATTEVILLE    SUNNY     65  62  89 CALM      30.09S
$$

WIZ056-057-062-063-064-067-068-301500-
SOUTH CENTRAL WISCONSIN

CITY           SKY/WX    TMP DP  RH WIND       PRES   REMARKS
REEDSBURG      SUNNY     62  61  98 CALM      30.08R
BARABOO/DELLS  SUNNY     63  62  95 CALM      30.09R
LONE ROCK      CLOUDY    63  61  93 CALM      30.09R FOG
MINERAL POINT  SUNNY     68  61  77 CALM      30.09R
MADISON        MOSUNNY   67  58  72 SE5       30.08R
MIDDLETON      CLOUDY    65  65 100 CALM      30.09R
WATERTOWN      CLOUDY    65  65 100 CALM      30.08R
MONROE         CLOUDY    64  59  82 CALM      30.09R
JANESVILLE     CLOUDY    66  64  94 E3        30.08S
$$

WIZ051-052-058>065-066-070>072-301500-
SOUTHEAST WISCONSIN

CITY           SKY/WX    TMP DP  RH WIND       PRES   REMARKS
MILWAUKEE      FOG       64  62  93 NE3       30.08S VSB 1/4
WAUKESHA       CLOUDY    63  61  94 CALM      30.10R FOG
MILWAUKEE/TIMM CLOUDY    63  61  94 CALM      30.09S FOG
RACINE         CLOUDY    64  62  93 N5        30.10R FOG
BURLINGTON     CLOUDY    63  61  91 N3        30.09S
KENOSHA        CLOUDY    65  64  97 N6        30.09S FOG
FOND DU LAC    FOG       63  61  93 CALM      30.09R VSB 1/4
SHEBOYGAN      FOG       61  60  97 CALM      30.09R VSB 1/4
WEST BEND      CLOUDY    61  61 100 CALM      30.09R FOG
JUNEAU         FOG       60  60  99 CALM      30.10S VSB<1/4
$$

LSZ147-162-301500-
LAKE SUPERIOR

STATION/POSITION TIME  TEMP    WIND        PRES    WAVE
                       AIR SEA DIR/SP/G            HT/PER
                 (UTC) (F)     (DEG/KT/KT) (MB)    (FT/S)
W MID LAKE BUOY  1350   58 54  200/ 12/ 14 1013.7F   1/ 4
DEVILS ISLAND    1400   64     220/  7/  9 1013.8F
PORT WING        1300   66     200/  8/ 13 1014.2F
SAXON HARBOR     1300   67     210/ 11/ 17 1014.2
$$

LMZ867-665-643>646-301500-
LAKE MICHIGAN

STATION/POSITION TIME  TEMP    WIND        PRES    WAVE
                       AIR SEA DIR/SP/G            HT/PER
                 (UTC) (F)     (DEG/KT/KT) (MB)    (FT/S)
CHAMBERS ISLAND  1300   60     160/  4/  8 1017.6F
S GREEN BAY BUOY 1300   60 62  180/  6/  6 1019.5F
N MID LAKE BUOY  1350   63 65  200/ 10/ 10 1017.4S   0
NORTHPORT PIER   1300   67     170/  2/  3 1017.6S
SISTER BAY       1319   68        CALM       N/A
ALGOMA LAKESHORE 1314             CALM       N/A
SHEBOYGAN LAKESH 1400   51      50/  4/  4 1019.3R
PORT WASHINGTON  1340   57     140/  1/  1 1019.3S
ATWATER BUOY     1400   55 49  350/  4/  4 1020.0R
MILWAUKEE LAKESH 1300   61      30/  5/  6   N/A
S MID LAKE BUOY  1350   67 68  350/  8/  8 1017.9R   1
KENOSHA   LAKESH 1400   59     360/  4/  5 1018.6R
$$

TC  - TEMPERATURE IN CELSIUS
VSB - VISIBILITY IN STATUTE MILES
WCI - WIND CHILL INDEX
HX  - HEAT INDEX




USA.gov is the U.S. government's official web portal to all federal, state and local government web resources and services.